Regional Weather Roundup
Issued by NWS

Home | Current Version | Previous Version | Text Only | Print | Product List | Glossary On
Versions: 1 2 3 4 5 6 7 8 9 10 11 12 13 14 15 16 17 18 19 20 21 22 23 24 25 26 27 28 29 30 31 32 33 34 35 36 37 38 39 40 41 42 43 44 45 46 47 48 49 50
584
ASUS44 KJAN 200803
RWRMS

MISSISSIPPI HOURLY WEATHER ROUNDUP
NATIONAL WEATHER SERVICE JACKSON MS
200 AM CST SAT DEC 20 2014

NOTE: "FAIR: INDICATES FEW OR NO CLOUDS BELOW 12,000 FEET WITH NO
SIGNIFICANT WEATHER AND/OR OBSTRUCTIONS TO VISIBILITY.

MSZ001>002-007>008-010>013-018>021-025>028-034>036-200900-
NORTHWEST MISSISSIPPI

CITY           SKY/WX    TMP DP  RH WIND       PRES   REMARKS
CLARKSDALE     MOCLDY    37  36  93 CALM      30.23R
CLEVELAND      CLOUDY    40  39  96 CALM      30.21S
GREENWOOD      CLOUDY    43  40  89 NE3       30.21R
GREENVILLE     CLOUDY    44  39  82 NE5       30.21R
GRENADA        CLOUDY    39  36  87 CALM      30.21S
OLIVE BRANCH   CLEAR     34  34 100 CALM      30.22S
OXFORD         FAIR      36  32  87 NE3       30.22S
TUNICA         SUNNY     36  32  87 N3        30.24S
$$

MSZ003>006-009-014>017-022>024-029>033-037>039-200900-
NORTHEAST MISSISSIPPI

CITY           SKY/WX    TMP DP  RH WIND       PRES   REMARKS
COLUMBUS AFB   CLOUDY    40  37  88 N5        30.20R
CORINTH        CLOUDY    39  34  81 CALM      30.21S
GOLDN TRIANGLE CLOUDY    41  37  87 N6        30.18S
STARKVILLE     CLOUDY    41  39  93 NE5       30.19R FOG
TUPELO         PTCLDY    37  33  85 NE6       30.20S WCI  32
$$

MSZ040-058-200900-
CENTRAL MISSISSIPPI

CITY           SKY/WX    TMP DP  RH WIND       PRES   REMARKS
JACKSON INTL   CLOUDY    46  43  89 N7        30.17R
JACKSON HAWKNS CLOUDY    45  43  93 N6        30.17S
MERIDIAN KEY   CLOUDY    43  41  93 N8        30.17R
MERIDIAN NAS   CLOUDY    43  41  93 N5        30.17R
RAYMOND        CLOUDY    45  41  87 N5        30.18R FOG
VICKSBURG      CLOUDY    46  43  89 N9        30.19S
$$

MSZ059>079-200900-
SOUTH MISSISSIPPI

CITY           SKY/WX    TMP DP  RH WIND       PRES   REMARKS
HATTIESBURG    CLOUDY    47  45  93 N9        30.13F
MCCOMB         CLOUDY    46  43  89 NE7       30.12R FOG
NATCHEZ        CLOUDY    46  43  87 N8        30.16R
PINE BELT      CLOUDY    45  41  87 N10G18    30.12S
$$

MSZ080>082-200900-
COASTAL MISSISSIPPI

CITY           SKY/WX    TMP DP  RH WIND       PRES   REMARKS
BILOXI         HVY RAIN  48  48 100 NE6       30.08S
PASCAGOULA     CLOUDY    48  46  93 NE9       30.08R
GULFPORT       RAIN      48  46  93 NE10      30.07R FOG
$$



USA.gov is the U.S. government's official web portal to all federal, state and local government web resources and services.